Precipitable_Water
0.21 0.15 0.13 0.15 0.16 0.17 0.17 0.16 0.18 0.25 0.31 0.32 0.32 0.34 0.35 0.34 0.32 0.30 0.29 0.33 0.36 0.32 0.35 0.35 0.37 0.42 0.47 0.55 0.59 0.62 0.65 0.67 0.68 0.70 0.68 0.72 0.73 0.75 0.75 0.79 0.84 0.87 0.91 0.92
0.18 0.14 0.21 0.22 0.21 0.20 0.20 0.20 0.23 0.31 0.36 0.35 0.34 0.34 0.34 0.32 0.29 0.28 0.29 0.32 0.35 0.36 0.34 0.36 0.37 0.38 0.41 0.49 0.58 0.63 0.68 0.74 0.75 0.75 0.75 0.75 0.74 0.75 0.76 0.80 0.82 0.87 0.89 0.91
0.18 0.22 0.26 0.23 0.22 0.22 0.23 0.26 0.30 0.31 0.34 0.34 0.27 0.20 0.22 0.26 0.30 0.28 0.29 0.35 0.38 0.39 0.39 0.37 0.36 0.37 0.40 0.45 0.52 0.60 0.65 0.68 0.73 0.74 0.74 0.73 0.73 0.71 0.69 0.71 0.75 0.82 0.87 0.88
0.29 0.32 0.29 0.28 0.27 0.29 0.26 0.33 0.31 0.24 0.20 0.14 0.23 0.14 0.19 0.23 0.22 0.24 0.28 0.33 0.34 0.35 0.42 0.45 0.46 0.40 0.42 0.44 0.53 0.55 0.59 0.66 0.70 0.71 0.68 0.65 0.61 0.57 0.61 0.66 0.73 0.79 0.87 0.88
0.25 0.28 0.27 0.22 0.23 0.28 0.23 0.25 0.23 0.22 0.19 0.18 0.19 0.17 0.20 0.21 0.18 0.22 0.27 0.30 0.34 0.37 0.42 0.42 0.48 0.50 0.51 0.56 0.58 0.62 0.62 0.59 0.63 0.69 0.70 0.69 0.68 0.69 0.72 0.73 0.74 0.78 0.84 0.89
0.22 0.27 0.24 0.23 0.26 0.26 0.27 0.24 0.23 0.22 0.21 0.13 0.20 0.18 0.17 0.17 0.20 0.24 0.26 0.30 0.30 0.30 0.32 0.36 0.41 0.49 0.50 0.51 0.53 0.55 0.59 0.66 0.71 0.72 0.72 0.71 0.70 0.74 0.77 0.77 0.75 0.77 0.81 0.84
0.17 0.21 0.25 0.28 0.20 0.25 0.25 0.20 0.11 0.11 0.12 0.11 0.21 0.17 0.18 0.23 0.28 0.27 0.26 0.26 0.33 0.33 0.34 0.38 0.36 0.36 0.40 0.41 0.41 0.45 0.48 0.47 0.52 0.53 0.65 0.67 0.68 0.70 0.68 0.69 0.71 0.72 0.75 0.80
0.12 0.11 0.21 0.25 0.22 0.21 0.23 0.21 0.14 0.09 0.10 0.12 0.20 0.14 0.20 0.25 0.32 0.29 0.27 0.32 0.36 0.37 0.37 0.37 0.37 0.39 0.43 0.46 0.47 0.48 0.50 0.49 0.50 0.49 0.44 0.47 0.54 0.55 0.58 0.63 0.67 0.70 0.71 0.72
0.16 0.17 0.26 0.27 0.29 0.29 0.24 0.20 0.27 0.18 0.21 0.18 0.19 0.23 0.29 0.30 0.29 0.27 0.30 0.35 0.36 0.39 0.42 0.43 0.45 0.49 0.52 0.53 0.55 0.56 0.57 0.59 0.60 0.61 0.60 0.55 0.50 0.48 0.49 0.51 0.54 0.54 0.60 0.67
0.25 0.19 0.29 0.29 0.33 0.35 0.30 0.33 0.22 0.25 0.16 0.15 0.19 0.20 0.19 0.24 0.25 0.26 0.32 0.34 0.38 0.41 0.41 0.44 0.43 0.45 0.49 0.52 0.55 0.57 0.56 0.56 0.57 0.58 0.61 0.61 0.60 0.61 0.61 0.59 0.57 0.57 0.54 0.50
0.30 0.28 0.26 0.32 0.29 0.28 0.28 0.27 0.28 0.28 0.25 0.17 0.15 0.16 0.29 0.27 0.26 0.27 0.32 0.36 0.38 0.41 0.41 0.43 0.45 0.48 0.50 0.52 0.52 0.51 0.52 0.52 0.52 0.53 0.55 0.57 0.59 0.60 0.59 0.57 0.57 0.58 0.59 0.60
0.34 0.32 0.24 0.26 0.34 0.35 0.32 0.29 0.29 0.22 0.20 0.23 0.21 0.18 0.31 0.31 0.30 0.33 0.34 0.38 0.39 0.40 0.41 0.44 0.46 0.48 0.49 0.51 0.51 0.51 0.51 0.50 0.50 0.52 0.55 0.55 0.56 0.56 0.56 0.58 0.62 0.63 0.58 0.59
0.38 0.30 0.22 0.22 0.25 0.30 0.27 0.28 0.30 0.29 0.28 0.21 0.18 0.17 0.31 0.30 0.31 0.34 0.35 0.37 0.40 0.41 0.42 0.44 0.45 0.47 0.48 0.49 0.49 0.49 0.49 0.49 0.50 0.49 0.49 0.52 0.56 0.55 0.55 0.54 0.55 0.58 0.63 0.64
0.41 0.32 0.25 0.19 0.22 0.27 0.25 0.28 0.30 0.29 0.23 0.21 0.21 0.19 0.26 0.28 0.29 0.33 0.34 0.39 0.43 0.45 0.46 0.45 0.45 0.47 0.47 0.47 0.47 0.46 0.45 0.46 0.47 0.47 0.46 0.46 0.47 0.49 0.51 0.53 0.54 0.55 0.58 0.58
0.38 0.27 0.30 0.30 0.31 0.30 0.27 0.27 0.28 0.25 0.25 0.21 0.17 0.20 0.24 0.28 0.31 0.35 0.40 0.42 0.44 0.44 0.42 0.43 0.44 0.44 0.44 0.44 0.43 0.44 0.45 0.45 0.44 0.41 0.39 0.39 0.42 0.43 0.44 0.46 0.46 0.48 0.50 0.54
0.35 0.27 0.29 0.23 0.27 0.26 0.22 0.25 0.25 0.24 0.23 0.24 0.24 0.22 0.32 0.36 0.39 0.38 0.40 0.42 0.42 0.41 0.41 0.41 0.41 0.41 0.42 0.42 0.43 0.43 0.42 0.41 0.40 0.37 0.34 0.35 0.37 0.40 0.42 0.40 0.39 0.40 0.43 0.45
0.31 0.29 0.25 0.18 0.25 0.24 0.16 0.18 0.20 0.22 0.25 0.25 0.19 0.25 0.34 0.33 0.34 0.36 0.39 0.40 0.39 0.38 0.39 0.40 0.40 0.41 0.42 0.42 0.42 0.40 0.39 0.40 0.38 0.37 0.37 0.34 0.33 0.35 0.37 0.38 0.37 0.33 0.35 0.41
0.26 0.25 0.26 0.19 0.22 0.11 0.17 0.25 0.26 0.23 0.25 0.28 0.29 0.33 0.34 0.33 0.36 0.39 0.40 0.40 0.39 0.39 0.38 0.37 0.36 0.37 0.36 0.37 0.35 0.35 0.35 0.36 0.36 0.33 0.31 0.30 0.31 0.32 0.32 0.34 0.35 0.35 0.36 0.35
0.30 0.27 0.21 0.17 0.15 0.15 0.16 0.20 0.22 0.21 0.22 0.31 0.32 0.35 0.35 0.35 0.37 0.35 0.40 0.39 0.37 0.37 0.36 0.35 0.35 0.35 0.35 0.35 0.33 0.29 0.27 0.30 0.31 0.30 0.26 0.25 0.27 0.27 0.27 0.31 0.35 0.37 0.36 0.36
0.25 0.27 0.21 0.18 0.14 0.10 0.17 0.26 0.29 0.28 0.18 0.31 0.31 0.32 0.33 0.35 0.26 0.26 0.33 0.35 0.36 0.34 0.34 0.34 0.33 0.33 0.32 0.31 0.27 0.27 0.21 0.20 0.20 0.22 0.28 0.29 0.26 0.25 0.26 0.31 0.37 0.38 0.39 0.38
0.14 0.17 0.15 0.16 0.16 0.19 0.27 0.29 0.29 0.17 0.20 0.32 0.32 0.32 0.30 0.28 0.29 0.30 0.33 0.32 0.31 0.29 0.31 0.33 0.33 0.30 0.28 0.25 0.23 0.21 0.22 0.20 0.21 0.22 0.23 0.27 0.29 0.29 0.28 0.28 0.39 0.42 0.41 0.41
0.14 0.13 0.15 0.19 0.16 0.14 0.25 0.24 0.19 0.27 0.30 0.28 0.25 0.25 0.27 0.32 0.30 0.30 0.29 0.29 0.28 0.26 0.25 0.24 0.24 0.24 0.24 0.23 0.21 0.20 0.20 0.22 0.22 0.22 0.22 0.22 0.24 0.26 0.29 0.28 0.32 0.39 0.43 0.42
0.11 0.15 0.14 0.17 0.13 0.22 0.22 0.18 0.23 0.27 0.24 0.23 0.25 0.26 0.26 0.23 0.22 0.24 0.25 0.26 0.24 0.24 0.23 0.23 0.21 0.20 0.21 0.20 0.19 0.18 0.19 0.21 0.22 0.23 0.22 0.23 0.24 0.24 0.27 0.28 0.28 0.32 0.38 0.40
0.14 0.17 0.13 0.12 0.13 0.17 0.19 0.20 0.20 0.19 0.19 0.21 0.22 0.23 0.23 0.23 0.26 0.28 0.27 0.25 0.22 0.20 0.19 0.19 0.18 0.15 0.14 0.15 0.15 0.15 0.16 0.16 0.17 0.17 0.21 0.24 0.25 0.26 0.27 0.27 0.30 0.30 0.32 0.36
0.14 0.16 0.13 0.13 0.16 0.17 0.17 0.19 0.19 0.18 0.21 0.22 0.22 0.23 0.23 0.24 0.28 0.28 0.24 0.22 0.21 0.20 0.19 0.19 0.18 0.18 0.17 0.17 0.16 0.17 0.16 0.17 0.16 0.16 0.17 0.18 0.23 0.26 0.27 0.28 0.29 0.29 0.32 0.35
0.14 0.12 0.13 0.12 0.17 0.18 0.17 0.20 0.23 0.24 0.23 0.24 0.25 0.27 0.30 0.31 0.30 0.26 0.21 0.21 0.20 0.20 0.20 0.19 0.19 0.20 0.19 0.19 0.18 0.18 0.18 0.18 0.17 0.16 0.16 0.18 0.19 0.22 0.26 0.28 0.26 0.32 0.33 0.34
Wind_Speed
6 4 6 7 7 7 8 10 13 14 15 18 19 23 24 22 17 16 16 19 20 21 22 21 21 21 22 22 23 23 21 18 12 9 6 9 15 17 20 23 25 26 26 27
5 6 7 8 8 9 11 12 14 16 17 20 20 24 19 14 13 13 16 18 20 22 22 22 21 20 20 20 20 20 18 16 14 10 7 7 10 14 18 21 23 25 26 27
6 7 8 8 10 11 12 13 15 17 21 18 20 17 13 13 13 15 16 18 19 21 22 22 22 20 20 19 18 18 17 15 13 11 8 8 10 13 16 19 21 23 25 26
6 8 9 10 11 12 14 14 17 20 19 17 17 16 16 14 15 16 18 19 21 22 22 22 22 21 19 19 18 17 16 14 13 12 10 9 10 12 15 17 20 22 24 26
9 9 11 10 11 13 15 17 19 18 17 17 15 15 17 16 18 17 18 21 23 23 23 23 21 20 19 18 18 17 15 15 14 13 12 11 11 12 14 15 18 21 23 24
8 10 10 12 13 15 18 18 18 17 16 15 16 15 19 18 17 17 20 22 22 21 21 21 19 19 19 19 18 17 16 16 15 14 13 13 13 13 14 15 16 18 20 22
13 11 12 12 16 16 17 17 18 18 17 17 18 20 21 19 17 17 19 18 18 19 19 18 18 18 17 17 17 17 16 16 16 16 15 15 15 16 16 16 17 18 19 21
11 15 13 16 16 17 17 17 15 20 20 23 23 19 17 14 13 14 14 15 17 17 17 17 17 16 17 17 17 16 16 16 16 16 16 16 16 17 17 18 19 19 20 22
14 17 17 18 18 17 18 17 17 17 18 17 15 16 17 14 13 14 13 16 18 18 18 18 18 18 18 18 18 17 17 16 16 16 16 16 16 17 18 18 19 20 22 23
16 18 17 17 17 17 16 15 15 16 15 17 18 19 16 16 16 14 16 19 21 21 20 19 19 20 20 20 19 18 18 18 18 18 18 18 19 19 19 19 20 21 21 22
15 15 16 16 15 15 16 16 15 15 15 16 19 19 17 18 19 18 19 24 26 26 22 22 22 22 21 20 19 19 19 20 20 20 21 21 21 21 22 22 22 23 23 24
16 16 18 18 18 18 18 18 16 16 20 20 20 25 22 22 21 21 26 27 30 29 24 24 24 23 22 22 22 22 23 23 24 24 24 25 25 25 26 26 26 27 27 27
16 17 19 20 18 17 19 20 20 20 22 24 23 25 24 23 25 27 30 33 33 27 25 25 25 25 25 26 26 27 28 28 28 29 30 30 30 31 31 31 31 31 31 31
20 20 21 23 23 23 24 24 24 23 25 30 33 41 34 34 36 38 40 38 31 27 27 28 28 29 30 30 30 31 32 33 34 35 35 35 36 36 35 35 35 35 34 34
23 25 26 29 30 30 33 32 32 33 36 34 43 40 39 38 38 36 35 30 27 27 29 31 32 33 34 34 35 36 37 38 38 39 39 40 40 39 39 38 37 37 37 37
26 29 28 31 32 34 38 36 37 38 40 41 42 45 40 35 31 31 30 28 28 30 32 33 34 35 37 37 39 40 41 42 42 42 43 44 43 42 41 41 41 41 40 39
28 28 29 32 30 33 35 33 32 29 29 29 31 33 30 30 32 31 29 29 30 33 34 35 37 38 39 41 42 43 44 44 44 45 45 45 44 43 43 43 43 43 43 42
31 28 29 34 32 31 31 29 29 30 32 31 31 30 30 32 31 31 31 32 35 36 37 38 40 40 41 42 43 44 44 45 44 45 45 44 44 44 44 45 45 44 44 44
31 28 30 29 28 36 38 32 29 27 28 29 29 30 32 34 35 34 33 36 37 38 40 42 42 43 44 44 45 45 45 44 44 43 42 42 42 43 44 44 44 45 45 45
26 27 28 26 27 30 29 30 30 30 32 31 32 35 37 36 36 37 37 38 40 43 44 45 45 46 45 46 47 46 44 43 43 43 43 42 42 42 42 42 42 42 43 44
26 27 31 33 32 34 33 34 34 32 32 34 36 39 39 38 40 41 41 43 45 47 47 47 46 47 46 46 44 43 43 43 43 43 43 42 42 42 41 41 40 41 41 41
29 28 29 28 30 33 31 31 30 34 38 41 43 44 44 42 43 44 47 47 49 48 46 45 44 44 43 43 43 42 42 43 43 43 42 41 41 40 40 40 39 38 39 39
32 30 31 30 34 36 38 38 41 43 46 46 44 45 45 48 49 50 48 48 46 44 43 42 42 42 42 41 41 42 42 43 43 42 42 41 40 39 39 38 37 37 37 37
35 35 36 38 37 39 45 48 48 50 48 50 51 49 49 49 48 46 45 43 42 42 41 41 40 40 40 39 39 39 40 40 40 40 40 40 39 39 37 37 36 35 35 35
37 38 38 46 47 48 48 46 50 51 50 51 49 49 50 48 45 41 41 40 39 39 38 38 38 39 39 40 40 40 40 39 39 39 38 38 38 37 37 36 36 35 34 35
36 37 38 45 47 47 51 49 48 48 49 47 46 44 39 36 37 36 37 36 37 38 38 37 37 38 39 40 41 41 41 40 40 40 39 38 37 37 37 37 36 35 35 35
Wind_Direction
257 246 246 255 265 268 276 281 287 294 302 311 303 302 302 301 296 302 309 320 324 325 323 324 325 327 332 338 344 351 357 2 355 339 307 256 239 242 239 239 241 244 246 247
262 245 250 265 274 276 277 287 294 294 301 308 308 306 304 303 301 305 314 319 322 325 327 324 324 326 329 330 338 345 352 358 357 345 322 278 251 246 246 245 247 248 248 249
240 250 265 275 279 283 284 286 294 296 307 304 306 305 308 305 304 309 312 315 319 322 324 324 323 322 323 327 328 334 340 344 347 346 327 296 272 260 256 253 251 249 250 251
263 272 277 278 280 287 294 292 301 304 310 301 313 299 303 301 303 307 310 315 318 320 322 321 323 322 322 322 323 325 329 330 331 331 329 313 286 275 266 261 256 254 252 253
274 278 288 285 289 292 289 300 298 299 297 305 301 302 297 302 300 301 306 312 316 316 318 320 321 320 321 320 321 321 321 321 318 315 312 308 305 286 279 272 264 258 255 254
283 284 283 285 290 294 299 302 303 302 299 300 298 297 299 298 297 298 305 311 314 317 322 323 323 322 320 320 318 316 316 316 316 311 306 300 295 293 287 279 272 265 260 256
295 286 287 290 299 298 308 308 303 303 302 290 301 300 292 298 295 300 309 315 318 322 325 326 325 328 329 327 324 319 316 314 313 309 303 299 294 289 286 283 277 272 267 262
291 293 290 295 297 294 302 301 294 291 295 295 298 290 297 298 298 307 315 318 320 324 324 325 325 326 328 329 329 329 324 319 317 314 310 302 297 293 287 283 279 275 271 267
289 284 290 295 294 295 297 299 296 297 297 302 294 298 300 292 294 303 313 322 319 318 319 321 321 320 321 322 323 322 322 320 319 317 314 311 305 298 293 289 284 279 275 272
282 291 294 295 295 299 295 294 302 303 300 295 296 297 293 287 287 289 303 312 316 311 310 313 315 314 314 314 313 314 315 315 314 312 309 308 305 302 299 293 289 285 282 277
289 290 294 298 291 289 297 296 298 293 289 292 299 294 293 288 282 284 296 306 306 306 297 301 307 308 307 308 310 310 310 309 309 308 306 304 302 299 297 294 291 288 285 280
291 288 292 288 296 296 293 289 286 291 292 288 291 290 297 291 285 284 298 303 306 301 291 295 298 300 302 303 304 305 304 303 303 302 301 300 299 297 295 293 291 287 285 282
286 292 300 302 303 299 292 290 286 289 292 283 287 292 296 295 290 289 298 300 302 297 294 295 296 296 297 298 298 299 300 299 298 297 297 296 294 294 292 291 290 287 283 282
286 284 281 284 288 292 291 289 287 286 288 290 278 286 286 291 290 294 297 296 292 289 291 292 293 295 295 295 295 296 296 296 296 296 295 293 292 290 289 288 287 285 283 281
286 284 286 286 289 289 288 285 283 280 280 280 287 283 290 290 290 290 292 292 288 289 290 292 292 292 294 294 293 294 294 294 294 293 293 292 290 289 287 286 285 284 282 280
287 287 291 290 286 285 286 286 283 280 281 280 284 286 289 290 288 289 289 287 287 288 290 290 291 292 293 293 293 293 294 293 292 292 292 292 289 287 286 285 284 282 281 279
283 286 293 290 294 295 292 289 283 289 286 285 285 289 291 290 291 289 287 284 286 289 289 290 291 292 293 294 294 294 294 293 292 292 291 291 288 286 285 284 283 282 280 277
282 285 284 288 295 290 294 295 290 288 290 287 289 288 289 291 290 290 287 287 291 291 291 292 292 293 293 294 295 295 295 294 293 293 292 290 289 287 286 284 283 281 279 277
275 280 283 285 284 291 293 293 292 290 292 292 290 288 290 291 290 289 287 288 290 291 292 293 293 293 293 294 295 295 295 294 293 293 292 292 291 289 288 286 284 282 280 278
290 278 278 285 284 287 290 294 297 293 287 292 293 291 291 290 287 289 289 290 290 292 293 293 293 293 293 294 294 294 294 293 293 293 292 292 291 290 289 288 286 284 282 279
293 288 277 279 281 286 289 292 293 287 291 293 292 291 289 286 287 290 290 290 292 293 292 292 292 292 293 294 294 293 293 293 293 293 292 292 291 290 289 289 287 287 284 282
287 287 286 284 284 284 293 293 291 291 291 293 292 290 288 287 289 289 290 292 293 293 293 292 292 292 293 294 294 293 293 293 293 293 292 292 292 291 289 289 288 287 287 284
288 284 287 280 282 285 289 288 288 289 291 291 289 289 288 288 288 289 290 292 292 292 292 292 293 293 293 294 295 294 294 294 293 292 292 292 291 291 289 289 288 287 288 286
289 289 284 288 288 287 289 289 288 290 287 288 287 286 287 288 289 289 289 290 292 292 292 293 293 294 295 296 296 296 297 296 295 294 293 291 290 290 289 289 287 286 287 288
288 290 287 285 288 290 289 289 291 289 288 287 286 285 285 285 285 285 287 289 291 292 293 293 293 294 294 296 296 297 297 296 295 295 295 294 291 289 289 288 286 285 285 286
288 288 286 289 292 290 292 292 292 292 291 289 289 288 285 282 283 283 288 289 291 293 293 294 294 294 294 295 296 296 296 294 293 293 293 293 292 291 289 287 286 284 284 287